OMA405 OOMS-HECA

Flight info

Callsign OMA405
Flight time 3h 52m
Altitude 36000
Route MCT N718 ITRAX/N0477F340 P899 ROVOS G462 ORBOL/N0474F360 G462 UKUVO Q563 IMGUX N563 ALPOB L768 VATIM L550 ORSAL/N0470F380 L550 NOVPA N697 MENLI L677 CVO
Aircraft B738/M-SDE2E3FGHIRWXY/LB1

Departure

Time 2026-05-05 09:54
Airport Muscat International Airport (OOMS)

Arrival

Time 2026-05-05 13:47
Airport Cairo International Airport (HECA)
Time Latitude Longitude Altitude Speed Heading
2026-05-05 08:56 23.60166 58.28468 44 ft 0 kts 175°
2026-05-05 09:41 23.60188 58.28466 41 ft 4 kts 175°
2026-05-05 09:41 23.60215 58.28464 41 ft 4 kts 175°
2026-05-05 09:42 23.60242 58.28461 40 ft 4 kts 175°
2026-05-05 09:42 23.60269 58.28458 41 ft 4 kts 175°
2026-05-05 09:42 23.60296 58.28456 41 ft 4 kts 175°
2026-05-05 09:42 23.60323 58.28453 43 ft 4 kts 176°
2026-05-05 09:43 23.60342 58.28452 41 ft 0 kts 176°
2026-05-05 09:45 23.60323 58.28452 39 ft 7 kts 184°
2026-05-05 09:45 23.60273 58.28405 44 ft 12 kts 250°
2026-05-05 09:45 23.60257 58.28316 44 ft 13 kts 271°
2026-05-05 09:45 23.60255 58.28187 44 ft 18 kts 280°
2026-05-05 09:46 23.60331 58.28096 40 ft 17 kts 277°
2026-05-05 09:46 23.60323 58.27982 44 ft 14 kts 267°
2026-05-05 09:46 23.60360 58.27889 44 ft 13 kts 305°
2026-05-05 09:46 23.60418 58.27813 44 ft 13 kts 309°
2026-05-05 09:47 23.60473 58.27737 43 ft 13 kts 296°
2026-05-05 09:47 23.60474 58.27645 44 ft 12 kts 263°
2026-05-05 09:47 23.60467 58.27556 44 ft 11 kts 267°
2026-05-05 09:47 23.60462 58.27471 44 ft 11 kts 266°
2026-05-05 09:48 23.60456 58.27387 44 ft 11 kts 265°
2026-05-05 09:48 23.60447 58.27307 44 ft 11 kts 263°
2026-05-05 09:48 23.60440 58.27228 44 ft 10 kts 252°
2026-05-05 09:48 23.60380 58.27203 44 ft 10 kts 175°
2026-05-05 09:49 23.60306 58.27210 44 ft 12 kts 175°
2026-05-05 09:49 23.60199 58.27220 44 ft 18 kts 175°
2026-05-05 09:49 23.60057 58.27233 44 ft 21 kts 175°
2026-05-05 09:49 23.59911 58.27247 44 ft 21 kts 176°
2026-05-05 09:50 23.59770 58.27261 43 ft 20 kts 176°
2026-05-05 09:50 23.59633 58.27273 41 ft 19 kts 175°
2026-05-05 09:50 23.59525 58.27274 43 ft 12 kts 212°
2026-05-05 09:50 23.59503 58.27191 43 ft 12 kts 264°
2026-05-05 09:51 23.59495 58.27103 43 ft 12 kts 264°
2026-05-05 09:51 23.59486 58.26996 43 ft 16 kts 264°
2026-05-05 09:51 23.59476 58.26859 43 ft 20 kts 266°
2026-05-05 09:51 23.59463 58.26720 43 ft 8 kts 263°
2026-05-05 09:52 23.59419 58.26676 41 ft 12 kts 179°
2026-05-05 09:52 23.59326 58.26685 43 ft 15 kts 175°
2026-05-05 09:52 23.59212 58.26694 44 ft 17 kts 174°
2026-05-05 09:52 23.59179 58.26815 42 ft 26 kts 85°
2026-05-05 09:53 23.59181 58.26837 43 ft 0 kts 85°
2026-05-05 09:53 23.59189 58.26969 44 ft 54 kts 85°
2026-05-05 09:53 23.59249 58.27682 43 ft 132 kts 84°
2026-05-05 09:54 23.59314 58.28453 45 ft 175 kts 84°
2026-05-05 09:54 23.59411 58.29916 537 ft 197 kts 84°
2026-05-05 09:54 23.59564 58.31367 1628 ft 187 kts 80°
2026-05-05 09:54 23.59767 58.32736 2710 ft 189 kts 75°
2026-05-05 09:55 23.60524 58.34012 3175 ft 220 kts 39°
2026-05-05 09:55 23.62045 58.34630 3492 ft 250 kts
2026-05-05 09:55 23.63773 58.34132 3980 ft 267 kts 326°
2026-05-05 09:55 23.65095 58.32775 4949 ft 261 kts 301°
2026-05-05 09:56 23.65691 58.30956 5751 ft 258 kts 271°
2026-05-05 09:56 23.65490 58.28949 6121 ft 281 kts 253°
2026-05-05 09:56 23.65056 58.26819 6826 ft 289 kts 256°
2026-05-05 09:56 23.64709 58.24719 7882 ft 279 kts 258°
2026-05-05 09:57 23.64411 58.22580 8440 ft 290 kts 259°
2026-05-05 09:57 23.64125 58.20394 9144 ft 293 kts 259°
2026-05-05 09:57 23.63837 58.18187 9869 ft 295 kts 259°
2026-05-05 09:57 23.63541 58.15954 10396 ft 305 kts 259°
2026-05-05 09:58 23.63223 58.13583 10557 ft 327 kts 259°
2026-05-05 09:58 23.62880 58.11058 10727 ft 347 kts 260°
2026-05-05 09:58 23.62515 58.08381 10865 ft 366 kts 260°
2026-05-05 09:58 23.62133 58.05571 10990 ft 383 kts 259°
2026-05-05 09:59 23.61735 58.02655 11255 ft 394 kts 260°
2026-05-05 09:59 23.61326 57.99667 11546 ft 402 kts 260°
2026-05-05 09:59 23.60909 57.96630 11943 ft 407 kts 261°
2026-05-05 09:59 23.60488 57.93567 12409 ft 410 kts 261°
2026-05-05 10:00 23.60065 57.90495 12939 ft 410 kts 262°
2026-05-05 10:00 23.59641 57.87423 13475 ft 410 kts 262°
2026-05-05 10:00 23.59213 57.84337 13906 ft 413 kts 263°
2026-05-05 10:00 23.58899 57.81228 14321 ft 414 kts 270°
2026-05-05 10:01 23.58863 57.78096 14776 ft 414 kts 271°
2026-05-05 10:01 23.58893 57.74966 15284 ft 412 kts 272°
2026-05-05 10:01 23.58935 57.71839 15776 ft 412 kts 272°
2026-05-05 10:01 23.58969 57.68710 16203 ft 414 kts 271°
2026-05-05 10:02 23.58990 57.65571 16659 ft 415 kts 272°
2026-05-05 10:02 23.59000 57.62418 17065 ft 417 kts 271°
2026-05-05 10:02 23.59003 57.59247 17459 ft 420 kts 271°
2026-05-05 10:02 23.59002 57.56043 17783 ft 423 kts 271°
2026-05-05 10:03 23.58999 57.52823 18066 ft 428 kts 271°
2026-05-05 10:03 23.58995 57.49564 18386 ft 430 kts 271°
2026-05-05 10:03 23.58989 57.46299 18749 ft 431 kts 271°
2026-05-05 10:03 23.58984 57.43052 19118 ft 431 kts 271°
2026-05-05 10:04 23.58977 57.39776 19436 ft 433 kts 271°
2026-05-05 10:04 23.58971 57.36479 19680 ft 437 kts 271°
2026-05-05 10:04 23.58964 57.33179 20054 ft 436 kts 270°
2026-05-05 10:04 23.58955 57.29875 20421 ft 436 kts 270°
2026-05-05 10:05 23.58947 57.26555 20669 ft 439 kts 270°
2026-05-05 10:05 23.58938 57.23224 21037 ft 439 kts 270°
2026-05-05 10:05 23.58928 57.19893 21348 ft 440 kts 270°
2026-05-05 10:05 23.58917 57.16592 21669 ft 441 kts 270°
2026-05-05 10:06 23.59086 57.13253 21920 ft 444 kts 278°
2026-05-05 10:06 23.59729 57.09953 22137 ft 446 kts 286°
2026-05-05 10:06 23.60808 57.06770 22259 ft 452 kts 293°
2026-05-05 10:06 23.62095 57.03634 22528 ft 452 kts 294°
2026-05-05 10:07 23.63397 57.00519 22867 ft 452 kts 294°
2026-05-05 10:07 23.64702 56.97387 23076 ft 454 kts 294°
2026-05-05 10:07 23.65994 56.94258 23357 ft 454 kts 294°
2026-05-05 10:07 23.67288 56.91097 23502 ft 457 kts 293°
2026-05-05 10:08 23.68583 56.87908 23680 ft 458 kts 293°
2026-05-05 10:08 23.69867 56.84734 23915 ft 458 kts 293°
2026-05-05 10:08 23.71158 56.81535 23974 ft 463 kts 293°
2026-05-05 10:08 23.72460 56.78303 24053 ft 467 kts 293°
2026-05-05 10:09 23.73767 56.75057 24213 ft 468 kts 293°
2026-05-05 10:09 23.75075 56.71810 24448 ft 467 kts 293°
2026-05-05 10:09 23.76381 56.68564 24697 ft 466 kts 292°
2026-05-05 10:09 23.77681 56.65333 24959 ft 465 kts 292°
2026-05-05 10:10 23.78980 56.62100 25106 ft 466 kts 293°
2026-05-05 10:10 23.80287 56.58847 25169 ft 469 kts 292°
2026-05-05 10:10 23.81597 56.55582 25350 ft 470 kts 293°
2026-05-05 10:10 23.82910 56.52308 25476 ft 471 kts 292°
2026-05-05 10:11 23.84226 56.49023 25626 ft 472 kts 292°
2026-05-05 10:11 23.85543 56.45734 25788 ft 473 kts 292°
2026-05-05 10:11 23.86859 56.42446 25938 ft 474 kts 292°
2026-05-05 10:11 23.88179 56.39146 26099 ft 473 kts 292°
2026-05-05 10:12 23.89495 56.35852 26315 ft 472 kts 292°
2026-05-05 10:12 23.90807 56.32566 26559 ft 471 kts 292°
2026-05-05 10:12 23.92113 56.29293 26799 ft 469 kts 292°
2026-05-05 10:12 23.93416 56.26025 27025 ft 469 kts 292°
2026-05-05 10:13 23.94786 56.22794 27296 ft 468 kts 297°
2026-05-05 10:13 23.96503 56.19779 27580 ft 467 kts 302°
2026-05-05 10:13 23.98340 56.16861 27794 ft 467 kts 303°
2026-05-05 10:13 24.00195 56.13944 27988 ft 467 kts 303°
2026-05-05 10:14 24.02041 56.11021 28222 ft 466 kts 303°
2026-05-05 10:14 24.03869 56.08097 28494 ft 465 kts 302°
2026-05-05 10:14 24.05677 56.05177 28791 ft 463 kts 302°
2026-05-05 10:14 24.07473 56.02260 29067 ft 462 kts 302°
2026-05-05 10:15 24.09261 55.99347 29307 ft 461 kts 302°
2026-05-05 10:15 24.11049 55.96431 29559 ft 460 kts 302°
2026-05-05 10:15 24.12829 55.93528 29854 ft 459 kts 302°
2026-05-05 10:15 24.14605 55.90632 30109 ft 457 kts 302°
2026-05-05 10:16 24.16375 55.87744 30339 ft 456 kts 302°
2026-05-05 10:16 24.18143 55.84860 30576 ft 455 kts 302°
2026-05-05 10:16 24.19889 55.81978 30818 ft 453 kts 299°
2026-05-05 10:16 24.21350 55.78933 31058 ft 450 kts 292°
2026-05-05 10:17 24.22389 55.75714 31297 ft 448 kts 284°
2026-05-05 10:17 24.23162 55.72415 31559 ft 446 kts 283°
2026-05-05 10:17 24.23924 55.69130 31806 ft 445 kts 283°
2026-05-05 10:17 24.24698 55.65892 32039 ft 444 kts 284°
2026-05-05 10:18 24.25497 55.62628 32309 ft 443 kts 284°
2026-05-05 10:18 24.26275 55.59369 32584 ft 441 kts 282°
2026-05-05 10:18 24.26942 55.56095 32849 ft 440 kts 281°
2026-05-05 10:18 24.27551 55.52821 33157 ft 437 kts 281°
2026-05-05 10:19 24.28149 55.49566 33489 ft 435 kts 281°
2026-05-05 10:19 24.28756 55.46327 33757 ft 434 kts 281°
2026-05-05 10:19 24.29374 55.43089 33956 ft 433 kts 281°
2026-05-05 10:19 24.30011 55.39817 34147 ft 433 kts 283°
2026-05-05 10:20 24.30903 55.36711 34330 ft 434 kts 290°
2026-05-05 10:20 24.32181 55.33665 34546 ft 435 kts 297°
2026-05-05 10:20 24.33804 55.30863 34725 ft 436 kts 301°
2026-05-05 10:20 24.35480 55.28145 34915 ft 436 kts 301°
2026-05-05 10:21 24.37170 55.25388 35102 ft 435 kts 301°
2026-05-05 10:21 24.38840 55.22620 35264 ft 435 kts 300°
2026-05-05 10:21 24.40501 55.19843 35458 ft 435 kts 300°
2026-05-05 10:21 24.42156 55.17066 35655 ft 434 kts 300°
2026-05-05 10:22 24.43805 55.14297 35757 ft 434 kts 300°
2026-05-05 10:22 24.45459 55.11521 35754 ft 434 kts 300°
2026-05-05 10:22 24.48760 55.05978 35754 ft 433 kts 300°
2026-05-05 10:23 24.52048 55.00450 35753 ft 432 kts 300°
2026-05-05 10:23 24.55328 54.94928 35752 ft 431 kts 300°
2026-05-05 10:24 24.58601 54.89413 35752 ft 431 kts 300°
2026-05-05 10:24 24.61778 54.83830 35763 ft 432 kts 297°
2026-05-05 10:25 24.64876 54.78123 35762 ft 437 kts 297°
2026-05-05 10:25 24.68018 54.72373 35762 ft 441 kts 298°
2026-05-05 10:26 24.71193 54.66590 35754 ft 443 kts 298°
2026-05-05 10:26 24.74380 54.60780 35755 ft 444 kts 298°
2026-05-05 10:27 24.77547 54.54996 35756 ft 444 kts 297°
2026-05-05 10:27 24.80752 54.49133 35763 ft 444 kts 297°
2026-05-05 10:28 24.83927 54.43320 35759 ft 443 kts 297°
2026-05-05 10:28 24.87110 54.37526 35760 ft 442 kts 298°
2026-05-05 10:29 24.90366 54.31850 35763 ft 441 kts 299°
2026-05-05 10:29 24.93655 54.26156 35764 ft 440 kts 298°
2026-05-05 10:30 24.96924 54.20461 35772 ft 439 kts 298°
2026-05-05 10:30 25.00177 54.14769 35768 ft 438 kts 298°
2026-05-05 10:31 25.03422 54.09081 35765 ft 438 kts 298°
2026-05-05 10:31 25.06659 54.03399 35769 ft 437 kts 298°
2026-05-05 10:32 25.09893 53.97718 35768 ft 437 kts 298°
2026-05-05 10:32 25.13123 53.92036 35780 ft 437 kts 298°
2026-05-05 10:33 25.16351 53.86350 35771 ft 437 kts 298°
2026-05-05 10:33 25.19576 53.80664 35772 ft 437 kts 298°
2026-05-05 10:34 25.22752 53.74949 35776 ft 436 kts 296°
2026-05-05 10:34 25.25818 53.69168 35772 ft 436 kts 296°
2026-05-05 10:35 25.28876 53.63382 35786 ft 436 kts 296°
2026-05-05 10:35 25.31949 53.57594 35773 ft 436 kts 296°
2026-05-05 10:36 25.35023 53.51811 35770 ft 436 kts 296°
2026-05-05 10:36 25.38093 53.46030 35780 ft 436 kts 296°
2026-05-05 10:37 25.41139 53.40286 35784 ft 436 kts 296°
2026-05-05 10:37 25.44201 53.34504 35772 ft 436 kts 296°
2026-05-05 10:38 25.47261 53.28720 35790 ft 435 kts 296°
2026-05-05 10:38 25.50592 53.23114 35767 ft 440 kts 305°
2026-05-05 10:39 25.54968 53.18294 35779 ft 445 kts 310°
2026-05-05 10:39 25.59420 53.13546 35781 ft 444 kts 310°
2026-05-05 10:40 25.63836 53.08760 35789 ft 444 kts 309°
2026-05-05 10:40 25.68240 53.03964 35776 ft 444 kts 309°
2026-05-05 10:41 25.71953 52.98642 35770 ft 431 kts 293°
2026-05-05 10:41 25.74256 52.93707 35773 ft 430 kts 292°
2026-05-05 10:42 25.78377 52.84862 35773 ft 430 kts 293°
2026-05-05 10:43 25.81151 52.78974 35776 ft 431 kts 293°
2026-05-05 10:43 25.83911 52.73121 35773 ft 431 kts 293°
2026-05-05 10:44 25.86686 52.67228 35776 ft 431 kts 293°
2026-05-05 10:44 25.89459 52.61331 35779 ft 431 kts 293°
2026-05-05 10:45 25.92150 52.55394 35776 ft 430 kts 291°
2026-05-05 10:45 25.94778 52.49417 35790 ft 430 kts 291°
2026-05-05 10:46 25.97415 52.43453 35778 ft 430 kts 291°
2026-05-05 10:46 26.00059 52.37496 35773 ft 430 kts 291°
2026-05-05 10:47 26.02709 52.31547 35774 ft 429 kts 291°
2026-05-05 10:47 26.05356 52.25597 35775 ft 429 kts 291°
2026-05-05 10:48 26.07997 52.19648 35778 ft 429 kts 291°
2026-05-05 10:48 26.10636 52.13696 35787 ft 429 kts 291°
2026-05-05 10:49 26.13270 52.07745 35778 ft 428 kts 291°
2026-05-05 10:49 26.15899 52.01796 35778 ft 428 kts 291°
2026-05-05 10:50 26.18545 51.95863 35774 ft 428 kts 291°
2026-05-05 10:50 26.21212 51.89938 35775 ft 427 kts 291°
2026-05-05 10:51 26.23832 51.84001 35801 ft 427 kts 291°
2026-05-05 10:51 26.26461 51.78067 35785 ft 427 kts 291°
2026-05-05 10:52 26.29104 51.72152 35770 ft 426 kts 291°
2026-05-05 10:52 26.31739 51.66243 35775 ft 425 kts 291°
2026-05-05 10:53 26.34366 51.60337 35774 ft 425 kts 291°
2026-05-05 10:53 26.36990 51.54431 35774 ft 425 kts 291°
2026-05-05 10:54 26.39235 51.48394 35782 ft 419 kts 284°
2026-05-05 10:54 26.41111 51.42241 35774 ft 419 kts 284°
2026-05-05 10:55 26.43049 51.36112 35775 ft 419 kts 285°
2026-05-05 10:55 26.45052 51.30000 35769 ft 419 kts 285°
2026-05-05 10:56 26.47043 51.23885 35775 ft 419 kts 284°
2026-05-05 10:56 26.48991 51.17751 35776 ft 419 kts 284°
2026-05-05 10:57 26.50936 51.11610 35781 ft 419 kts 284°
2026-05-05 10:57 26.52880 51.05475 35778 ft 419 kts 284°
2026-05-05 10:58 26.54820 50.99351 35776 ft 418 kts 284°
2026-05-05 10:58 26.56755 50.93232 35777 ft 418 kts 284°
2026-05-05 10:59 26.58650 50.87153 35768 ft 417 kts 284°
2026-05-05 10:59 26.60524 50.81021 35778 ft 417 kts 283°
2026-05-05 11:00 26.62399 50.74891 35785 ft 417 kts 283°
2026-05-05 11:00 26.64273 50.68764 35778 ft 416 kts 283°
2026-05-05 11:01 26.66105 50.62642 35767 ft 415 kts 283°
2026-05-05 11:01 26.67919 50.56523 35779 ft 415 kts 283°
2026-05-05 11:02 26.69736 50.50403 35773 ft 415 kts 283°
2026-05-05 11:02 26.71461 50.44264 35772 ft 413 kts 281°
2026-05-05 11:03 26.73026 50.38081 35783 ft 413 kts 281°
2026-05-05 11:03 26.74609 50.31901 35769 ft 413 kts 281°
2026-05-05 11:04 26.76219 50.25738 35771 ft 413 kts 282°
2026-05-05 11:04 26.78040 50.19629 35771 ft 414 kts 283°
2026-05-05 11:05 26.79885 50.13568 35761 ft 414 kts 283°
2026-05-05 11:05 26.81708 50.07463 35766 ft 413 kts 283°
2026-05-05 11:06 26.83518 50.01358 35770 ft 413 kts 283°
2026-05-05 11:06 26.85322 49.95266 35764 ft 413 kts 282°
2026-05-05 11:07 26.87125 49.89174 35753 ft 412 kts 282°
2026-05-05 11:07 26.88921 49.83090 35747 ft 411 kts 282°
2026-05-05 11:08 26.90713 49.77008 35744 ft 411 kts 282°
2026-05-05 11:08 26.92500 49.70936 35734 ft 410 kts 282°
2026-05-05 11:09 26.94284 49.64860 35770 ft 410 kts 282°
2026-05-05 11:09 26.96064 49.58785 35749 ft 410 kts 282°
2026-05-05 11:10 26.97830 49.52750 35734 ft 410 kts 282°
2026-05-05 11:10 26.99602 49.46685 35732 ft 409 kts 282°
2026-05-05 11:11 27.01487 49.40652 35728 ft 414 kts 288°
2026-05-05 11:11 27.04301 49.34956 35733 ft 419 kts 292°
2026-05-05 11:12 27.07185 49.29288 35735 ft 419 kts 292°
2026-05-05 11:12 27.10052 49.23594 35740 ft 419 kts 292°
2026-05-05 11:13 27.12914 49.17883 35733 ft 420 kts 292°
2026-05-05 11:13 27.15776 49.12162 35736 ft 420 kts 292°
2026-05-05 11:14 27.18639 49.06434 35751 ft 421 kts 292°
2026-05-05 11:14 27.21502 49.00702 35740 ft 421 kts 292°
2026-05-05 11:15 27.24368 48.94969 35745 ft 420 kts 292°
2026-05-05 11:15 27.27233 48.89242 35740 ft 420 kts 292°
2026-05-05 11:16 27.30092 48.83516 35740 ft 420 kts 292°
2026-05-05 11:16 27.32948 48.77786 35764 ft 420 kts 291°
2026-05-05 11:17 27.35799 48.72059 35749 ft 419 kts 291°
2026-05-05 11:17 27.38644 48.66337 35742 ft 419 kts 291°
2026-05-05 11:18 27.41483 48.60617 35746 ft 418 kts 291°
2026-05-05 11:18 27.44299 48.54936 35743 ft 418 kts 291°
2026-05-05 11:19 27.47148 48.49182 35744 ft 418 kts 291°
2026-05-05 11:19 27.49975 48.43464 35757 ft 417 kts 291°
2026-05-05 11:20 27.52777 48.37790 35740 ft 417 kts 291°
2026-05-05 11:20 27.55611 48.32042 35741 ft 417 kts 291°
2026-05-05 11:21 27.58421 48.26334 35757 ft 416 kts 291°
2026-05-05 11:21 27.61204 48.20661 35758 ft 416 kts 290°
2026-05-05 11:22 27.64001 48.14949 35745 ft 416 kts 290°
2026-05-05 11:22 27.66796 48.09234 35732 ft 416 kts 290°
2026-05-05 11:23 27.69587 48.03523 35739 ft 415 kts 290°
2026-05-05 11:23 27.72374 47.97815 35745 ft 415 kts 290°
2026-05-05 11:24 27.75158 47.92107 35741 ft 415 kts 290°
2026-05-05 11:24 27.77936 47.86403 35745 ft 414 kts 290°
2026-05-05 11:25 27.80708 47.80700 35741 ft 414 kts 290°
2026-05-05 11:25 27.83475 47.75004 35750 ft 414 kts 290°
2026-05-05 11:26 27.85655 47.69105 35760 ft 404 kts 282°
2026-05-05 11:26 27.87467 47.63148 35752 ft 404 kts 282°
2026-05-05 11:27 27.89308 47.57149 35754 ft 404 kts 282°
2026-05-05 11:27 27.91156 47.51152 35746 ft 404 kts 282°
2026-05-05 11:28 27.93004 47.45157 35755 ft 404 kts 282°
2026-05-05 11:28 27.94852 47.39155 35756 ft 404 kts 282°
2026-05-05 11:29 27.96696 47.33153 35752 ft 404 kts 282°
2026-05-05 11:29 27.98537 47.27147 35757 ft 404 kts 282°
2026-05-05 11:30 28.00376 47.21141 35762 ft 404 kts 282°
2026-05-05 11:30 28.01902 47.16147 35759 ft 404 kts 282°
2026-05-05 11:31 28.03737 47.10131 35780 ft 404 kts 281°
2026-05-05 11:31 28.05572 47.04107 35772 ft 405 kts 281°
2026-05-05 11:32 28.07404 46.98079 35764 ft 405 kts 281°
2026-05-05 11:32 28.09237 46.92043 35762 ft 405 kts 281°
2026-05-05 11:33 28.11087 46.86012 35766 ft 407 kts 282°
2026-05-05 11:33 28.13090 46.80009 35780 ft 408 kts 283°
2026-05-05 11:34 28.15114 46.74027 35774 ft 408 kts 283°
2026-05-05 11:34 28.17129 46.68013 35771 ft 408 kts 283°
2026-05-05 11:35 28.19117 46.62036 35776 ft 408 kts 283°
2026-05-05 11:35 28.21113 46.56017 35782 ft 408 kts 283°
2026-05-05 11:36 28.23105 46.49996 35786 ft 408 kts 283°
2026-05-05 11:36 28.25097 46.43968 35800 ft 408 kts 283°
2026-05-05 11:37 28.27086 46.37938 35809 ft 408 kts 282°
2026-05-05 11:37 28.29073 46.31903 35824 ft 408 kts 282°
2026-05-05 11:38 28.31058 46.25864 35827 ft 408 kts 282°
2026-05-05 11:38 28.33041 46.19823 35851 ft 409 kts 282°
2026-05-05 11:39 28.35022 46.13776 35831 ft 409 kts 282°
2026-05-05 11:39 28.37086 46.07747 35830 ft 411 kts 284°
2026-05-05 11:40 28.39341 46.01775 35832 ft 412 kts 285°
2026-05-05 11:40 28.41607 45.95799 35829 ft 412 kts 285°
2026-05-05 11:41 28.43849 45.89815 35839 ft 412 kts 285°
2026-05-05 11:41 28.46075 45.83821 35839 ft 412 kts 285°
2026-05-05 11:42 28.48298 45.77819 35839 ft 412 kts 284°
2026-05-05 11:42 28.50516 45.71819 35839 ft 412 kts 284°
2026-05-05 11:43 28.52733 45.65814 35855 ft 412 kts 284°
2026-05-05 11:43 28.54932 45.59846 35846 ft 412 kts 284°
2026-05-05 11:44 28.57145 45.53832 35858 ft 412 kts 284°
2026-05-05 11:44 28.59355 45.47815 35848 ft 412 kts 284°
2026-05-05 11:45 28.61563 45.41797 35857 ft 412 kts 284°
2026-05-05 11:45 28.63766 45.35781 35873 ft 412 kts 284°
2026-05-05 11:46 28.65967 45.29760 35863 ft 412 kts 284°
2026-05-05 11:46 28.68166 45.23736 35859 ft 412 kts 284°
2026-05-05 11:47 28.70360 45.17714 35863 ft 412 kts 284°
2026-05-05 11:47 28.72550 45.11694 35892 ft 411 kts 284°
2026-05-05 11:48 28.75835 45.02644 35871 ft 412 kts 284°
2026-05-05 11:48 28.78022 44.96608 35885 ft 412 kts 284°
2026-05-05 11:49 28.80208 44.90566 35874 ft 412 kts 284°
2026-05-05 11:49 28.82390 44.84524 35869 ft 412 kts 284°
2026-05-05 11:50 28.84568 44.78484 35872 ft 412 kts 284°
2026-05-05 11:50 28.86196 44.72322 35882 ft 400 kts 273°
2026-05-05 11:51 28.86712 44.66093 35876 ft 397 kts 269°
2026-05-05 11:51 28.87194 44.59812 35906 ft 398 kts 270°
2026-05-05 11:52 28.87690 44.53531 35893 ft 397 kts 270°
2026-05-05 11:52 28.88131 44.47987 35871 ft 397 kts 270°
2026-05-05 11:53 28.88628 44.41714 35924 ft 397 kts 270°
2026-05-05 11:53 28.89122 44.35442 35905 ft 397 kts 270°
2026-05-05 11:54 28.89613 44.29174 35898 ft 396 kts 270°
2026-05-05 11:54 28.90101 44.22909 35901 ft 396 kts 270°
2026-05-05 11:55 28.90585 44.16652 35909 ft 396 kts 270°
2026-05-05 11:55 28.91066 44.10398 35905 ft 395 kts 270°
2026-05-05 11:56 28.91543 44.04151 35909 ft 395 kts 269°
2026-05-05 11:56 28.92017 43.97909 35924 ft 395 kts 269°
2026-05-05 11:57 28.92488 43.91668 35917 ft 394 kts 269°
2026-05-05 11:57 28.92956 43.85435 35896 ft 394 kts 269°
2026-05-05 11:58 28.93420 43.79214 35930 ft 394 kts 269°
2026-05-05 11:58 28.93881 43.72988 35928 ft 394 kts 269°
2026-05-05 11:59 28.94336 43.66804 35935 ft 393 kts 269°
2026-05-05 11:59 28.94791 43.60579 35942 ft 394 kts 269°
2026-05-05 12:00 28.95245 43.54348 35943 ft 394 kts 269°
2026-05-05 12:00 28.95693 43.48117 35942 ft 394 kts 269°
2026-05-05 12:01 28.96134 43.41889 35973 ft 394 kts 269°
2026-05-05 12:01 28.96573 43.35658 35951 ft 394 kts 269°
2026-05-05 12:02 28.97010 43.29427 35940 ft 394 kts 269°
2026-05-05 12:02 28.97443 43.23199 35928 ft 393 kts 269°
2026-05-05 12:03 28.97874 43.16974 35949 ft 393 kts 269°
2026-05-05 12:03 28.98302 43.10750 35957 ft 393 kts 269°
2026-05-05 12:04 28.98726 43.04524 35959 ft 393 kts 269°
2026-05-05 12:04 28.99148 42.98298 35965 ft 394 kts 269°
2026-05-05 12:05 28.99568 42.92063 35961 ft 394 kts 269°
2026-05-05 12:05 28.99985 42.85830 35965 ft 394 kts 269°
2026-05-05 12:06 29.00398 42.79597 35965 ft 393 kts 269°
2026-05-05 12:06 29.00809 42.73366 35967 ft 393 kts 269°
2026-05-05 12:07 29.01217 42.67135 35970 ft 393 kts 269°
2026-05-05 12:07 29.01621 42.60906 35997 ft 393 kts 269°
2026-05-05 12:08 29.02023 42.54678 35964 ft 393 kts 269°
2026-05-05 12:08 29.02421 42.48461 35974 ft 393 kts 269°
2026-05-05 12:09 29.02817 42.42241 35985 ft 393 kts 269°
2026-05-05 12:09 29.03207 42.36053 35988 ft 394 kts 268°
2026-05-05 12:10 29.03598 42.29814 35985 ft 394 kts 268°
2026-05-05 12:10 29.03987 42.23568 35985 ft 394 kts 268°
2026-05-05 12:11 29.04373 42.17321 35999 ft 395 kts 268°
2026-05-05 12:11 29.04758 42.11060 35995 ft 395 kts 268°
2026-05-05 12:12 29.05141 42.04795 35988 ft 395 kts 268°
2026-05-05 12:12 29.05521 41.98529 36034 ft 395 kts 268°
2026-05-05 12:13 29.05899 41.92256 36008 ft 395 kts 268°
2026-05-05 12:13 29.06277 41.85991 35999 ft 395 kts 268°
2026-05-05 12:14 29.06652 41.79730 36003 ft 395 kts 268°
2026-05-05 12:14 29.07024 41.73468 36007 ft 395 kts 268°
2026-05-05 12:15 29.07391 41.67248 36005 ft 394 kts 268°
2026-05-05 12:15 29.07757 41.60998 36008 ft 394 kts 268°
2026-05-05 12:16 29.08120 41.54749 36047 ft 394 kts 268°
2026-05-05 12:16 29.08480 41.48509 36020 ft 393 kts 268°
2026-05-05 12:17 29.08835 41.42287 36012 ft 392 kts 268°
2026-05-05 12:17 29.09182 41.36087 36020 ft 390 kts 268°
2026-05-05 12:18 29.09523 41.29900 36025 ft 390 kts 268°
2026-05-05 12:18 29.09861 41.23718 36029 ft 389 kts 268°
2026-05-05 12:19 29.10197 41.17550 36022 ft 389 kts 268°
2026-05-05 12:19 29.10529 41.11375 36043 ft 389 kts 268°
2026-05-05 12:20 29.10859 41.05199 36037 ft 389 kts 268°
2026-05-05 12:20 29.11132 41.00063 36037 ft 390 kts 268°
2026-05-05 12:21 29.11458 40.93876 36034 ft 390 kts 268°
2026-05-05 12:21 29.11780 40.87690 36046 ft 390 kts 268°
2026-05-05 12:22 29.12100 40.81507 36039 ft 389 kts 268°
2026-05-05 12:22 29.12417 40.75326 36039 ft 389 kts 267°
2026-05-05 12:23 29.12730 40.69157 36042 ft 388 kts 267°
2026-05-05 12:23 29.13041 40.62992 36051 ft 388 kts 267°
2026-05-05 12:24 29.13296 40.56830 36041 ft 386 kts 264°
2026-05-05 12:24 29.13108 40.50712 36018 ft 385 kts 263°
2026-05-05 12:25 29.12885 40.44593 36058 ft 386 kts 263°
2026-05-05 12:25 29.12672 40.38456 36053 ft 387 kts 263°
2026-05-05 12:26 29.12464 40.32311 36054 ft 387 kts 263°
2026-05-05 12:26 29.12255 40.26158 36050 ft 387 kts 263°
2026-05-05 12:27 29.12044 40.20006 36057 ft 387 kts 263°
2026-05-05 12:27 29.11831 40.13895 36054 ft 387 kts 263°
2026-05-05 12:28 29.11615 40.07747 36046 ft 387 kts 263°
2026-05-05 12:28 29.11395 40.01601 36072 ft 387 kts 263°
2026-05-05 12:29 29.11174 39.95455 36056 ft 386 kts 263°
2026-05-05 12:29 29.10961 39.89317 36050 ft 387 kts 264°
2026-05-05 12:30 29.10963 39.83162 36047 ft 387 kts 265°
2026-05-05 12:30 29.11027 39.77008 36057 ft 387 kts 265°
2026-05-05 12:31 29.11069 39.70860 36054 ft 386 kts 265°
2026-05-05 12:31 29.11094 39.64713 36051 ft 387 kts 265°
2026-05-05 12:32 29.11110 39.58562 36046 ft 387 kts 265°
2026-05-05 12:32 29.11122 39.52405 36052 ft 387 kts 265°
2026-05-05 12:33 29.11132 39.46255 36040 ft 387 kts 265°
2026-05-05 12:33 29.11139 39.40110 36045 ft 386 kts 265°
2026-05-05 12:34 29.11143 39.33969 36060 ft 386 kts 265°
2026-05-05 12:34 29.11144 39.27831 36034 ft 385 kts 265°
2026-05-05 12:35 29.11143 39.21747 36034 ft 385 kts 265°
2026-05-05 12:35 29.11139 39.15621 36037 ft 385 kts 265°
2026-05-05 12:36 29.11132 39.09498 36034 ft 386 kts 265°
2026-05-05 12:36 29.11122 39.03359 36036 ft 387 kts 265°
2026-05-05 12:37 29.11110 38.97204 36026 ft 387 kts 265°
2026-05-05 12:37 29.11094 38.91043 36029 ft 388 kts 265°
2026-05-05 12:38 29.11070 38.84872 36034 ft 389 kts 265°
2026-05-05 12:38 29.11042 38.78679 36029 ft 390 kts 265°
2026-05-05 12:39 29.11013 38.72469 36024 ft 391 kts 265°
2026-05-05 12:39 29.10982 38.66261 36008 ft 390 kts 265°
2026-05-05 12:40 29.10947 38.60048 36025 ft 391 kts 265°
2026-05-05 12:40 29.10910 38.53830 36021 ft 391 kts 265°
2026-05-05 12:41 29.10869 38.47602 36023 ft 392 kts 265°
2026-05-05 12:41 29.10827 38.41371 36017 ft 392 kts 265°
2026-05-05 12:42 29.10780 38.35141 36015 ft 392 kts 265°
2026-05-05 12:42 29.10724 38.28915 36014 ft 392 kts 265°
2026-05-05 12:43 29.10666 38.22726 36008 ft 392 kts 265°
2026-05-05 12:43 29.10606 38.16492 36021 ft 392 kts 265°
2026-05-05 12:44 29.10543 38.10261 36006 ft 392 kts 265°
2026-05-05 12:44 29.10477 38.04033 36004 ft 391 kts 265°
2026-05-05 12:45 29.10409 37.97817 35996 ft 391 kts 265°
2026-05-05 12:45 29.10337 37.91600 36007 ft 391 kts 265°
2026-05-05 12:46 29.10262 37.85381 35995 ft 392 kts 265°
2026-05-05 12:46 29.10185 37.79150 35988 ft 392 kts 265°
2026-05-05 12:47 29.10105 37.72916 35986 ft 392 kts 265°
2026-05-05 12:47 29.10022 37.66678 35991 ft 393 kts 265°
2026-05-05 12:48 29.09937 37.60437 35976 ft 392 kts 265°
2026-05-05 12:48 29.09848 37.54206 35982 ft 392 kts 265°
2026-05-05 12:49 29.09769 37.47981 35977 ft 392 kts 265°
2026-05-05 12:49 29.09730 37.41756 35986 ft 391 kts 266°
2026-05-05 12:50 29.09695 37.35548 35979 ft 390 kts 266°
2026-05-05 12:50 29.09654 37.29354 35975 ft 389 kts 266°
2026-05-05 12:51 29.09606 37.23167 36005 ft 388 kts 266°
2026-05-05 12:51 29.09556 37.17033 35991 ft 389 kts 266°
2026-05-05 12:52 29.09502 37.10855 35980 ft 389 kts 265°
2026-05-05 12:52 29.09446 37.04678 35983 ft 389 kts 265°
2026-05-05 12:53 29.09387 36.98498 36011 ft 389 kts 266°
2026-05-05 12:53 29.09325 36.92321 35993 ft 388 kts 266°
2026-05-05 12:54 29.09227 36.83063 35975 ft 388 kts 265°
2026-05-05 12:55 29.09158 36.76903 35982 ft 387 kts 266°
2026-05-05 12:55 29.09086 36.70740 35978 ft 388 kts 266°
2026-05-05 12:56 29.09012 36.64560 35983 ft 389 kts 266°
2026-05-05 12:56 29.08934 36.58365 35970 ft 390 kts 266°
2026-05-05 12:57 29.08855 36.52199 35971 ft 391 kts 266°
2026-05-05 12:57 29.08761 36.45977 35966 ft 393 kts 265°
2026-05-05 12:58 29.08594 36.39719 35976 ft 395 kts 265°
2026-05-05 12:58 29.08411 36.33429 35968 ft 396 kts 265°
2026-05-05 12:59 29.08230 36.27126 35967 ft 397 kts 265°
2026-05-05 12:59 29.08051 36.20811 35976 ft 398 kts 265°
2026-05-05 13:00 29.07778 36.11347 35972 ft 397 kts 265°
2026-05-05 13:01 29.07407 35.98771 35965 ft 395 kts 265°
2026-05-05 13:01 29.07218 35.92497 35933 ft 395 kts 265°
2026-05-05 13:02 29.07025 35.86232 35962 ft 394 kts 265°
2026-05-05 13:02 29.06830 35.79975 35979 ft 394 kts 265°
2026-05-05 13:03 29.06631 35.73713 36015 ft 394 kts 265°
2026-05-05 13:03 29.06431 35.67457 35986 ft 393 kts 265°
2026-05-05 13:04 29.06228 35.61226 35984 ft 392 kts 265°
2026-05-05 13:04 29.06023 35.55016 36008 ft 390 kts 265°
2026-05-05 13:05 29.05813 35.48815 36010 ft 390 kts 265°
2026-05-05 13:05 29.05600 35.42616 36005 ft 391 kts 266°
2026-05-05 13:06 29.05389 35.36405 36002 ft 391 kts 266°
2026-05-05 13:06 29.05173 35.30188 36004 ft 392 kts 265°
2026-05-05 13:07 29.04955 35.24016 36037 ft 391 kts 266°
2026-05-05 13:07 29.04733 35.17805 35997 ft 391 kts 266°
2026-05-05 13:08 29.04508 35.11598 36004 ft 392 kts 266°
2026-05-05 13:08 29.04279 35.05381 36007 ft 392 kts 266°
2026-05-05 13:09 29.04048 34.99165 36015 ft 391 kts 266°
2026-05-05 13:09 29.03815 34.92941 36002 ft 392 kts 265°
2026-05-05 13:10 29.03577 34.86703 36004 ft 393 kts 265°
2026-05-05 13:10 29.03388 34.80458 35989 ft 394 kts 266°
2026-05-05 13:11 29.03285 34.75262 35996 ft 393 kts 267°
2026-05-05 13:11 29.03297 34.68998 35994 ft 396 kts 272°
2026-05-05 13:12 29.04408 34.62784 36001 ft 404 kts 284°
2026-05-05 13:12 29.06234 34.56684 36005 ft 407 kts 284°
2026-05-05 13:13 29.08057 34.50549 36007 ft 408 kts 284°
2026-05-05 13:13 29.09866 34.44402 36020 ft 407 kts 284°
2026-05-05 13:14 29.11659 34.38279 36003 ft 404 kts 284°
2026-05-05 13:14 29.13436 34.32213 36028 ft 400 kts 284°
2026-05-05 13:15 29.15191 34.26169 36026 ft 400 kts 284°
2026-05-05 13:15 29.16938 34.20153 36044 ft 399 kts 284°
2026-05-05 13:16 29.18687 34.14126 36041 ft 399 kts 284°
2026-05-05 13:16 29.20429 34.08111 36042 ft 399 kts 284°
2026-05-05 13:17 29.22175 34.02075 36041 ft 399 kts 284°
2026-05-05 13:17 29.23918 33.96036 36042 ft 400 kts 284°
2026-05-05 13:18 29.25662 33.89986 36046 ft 400 kts 284°
2026-05-05 13:18 29.27405 33.83934 36046 ft 400 kts 284°
2026-05-05 13:19 29.29146 33.77877 36047 ft 400 kts 284°
2026-05-05 13:19 29.30881 33.71826 36050 ft 400 kts 284°
2026-05-05 13:20 29.32616 33.65764 36058 ft 401 kts 284°
2026-05-05 13:20 29.34349 33.59696 36044 ft 400 kts 284°
2026-05-05 13:21 29.36080 33.53627 36038 ft 400 kts 284°
2026-05-05 13:21 29.37794 33.47604 36046 ft 400 kts 284°
2026-05-05 13:22 29.39517 33.41538 36050 ft 400 kts 284°
2026-05-05 13:22 29.41236 33.35473 36042 ft 400 kts 284°
2026-05-05 13:23 29.42953 33.29406 36048 ft 400 kts 284°
2026-05-05 13:23 29.44666 33.23340 36049 ft 400 kts 284°
2026-05-05 13:24 29.46379 33.17262 36047 ft 400 kts 284°
2026-05-05 13:24 29.48089 33.11182 36053 ft 401 kts 284°
2026-05-05 13:25 29.49798 33.05095 36047 ft 401 kts 284°
2026-05-05 13:25 29.51504 32.99006 36043 ft 401 kts 284°
2026-05-05 13:26 29.53207 32.92916 35979 ft 401 kts 284°
2026-05-05 13:26 29.54057 32.89871 35704 ft 399 kts 284°
2026-05-05 13:26 29.54897 32.86864 35383 ft 392 kts 284°
2026-05-05 13:27 29.55727 32.83888 34772 ft 391 kts 284°
2026-05-05 13:27 29.56555 32.80909 34011 ft 394 kts 284°
2026-05-05 13:27 29.57392 32.77896 33078 ft 398 kts 284°
2026-05-05 13:27 29.58238 32.74849 32161 ft 402 kts 285°
2026-05-05 13:28 29.59091 32.71778 31257 ft 405 kts 285°
2026-05-05 13:28 29.59948 32.68679 30357 ft 408 kts 285°
2026-05-05 13:28 29.60734 32.65540 29347 ft 410 kts 283°
2026-05-05 13:28 29.61461 32.62369 28289 ft 411 kts 283°
2026-05-05 13:29 29.62169 32.59174 27179 ft 414 kts 283°
2026-05-05 13:29 29.62876 32.55966 26453 ft 409 kts 283°
2026-05-05 13:29 29.63576 32.52809 26303 ft 409 kts 283°
2026-05-05 13:29 29.64287 32.49622 26193 ft 413 kts 283°
2026-05-05 13:30 29.64995 32.46464 25764 ft 402 kts 283°
2026-05-05 13:30 29.65688 32.43384 25125 ft 396 kts 283°
2026-05-05 13:30 29.66374 32.40334 24351 ft 393 kts 283°
2026-05-05 13:30 29.67057 32.37298 23575 ft 391 kts 283°
2026-05-05 13:31 29.67734 32.34283 22738 ft 388 kts 284°
2026-05-05 13:31 29.68407 32.31287 21885 ft 386 kts 284°
2026-05-05 13:31 29.69075 32.28306 21052 ft 384 kts 284°
2026-05-05 13:31 29.69739 32.25338 20264 ft 382 kts 284°
2026-05-05 13:32 29.70400 32.22386 19509 ft 380 kts 284°
2026-05-05 13:32 29.71056 32.19445 18755 ft 379 kts 284°
2026-05-05 13:32 29.71711 32.16513 17967 ft 378 kts 284°
2026-05-05 13:32 29.72362 32.13594 17197 ft 375 kts 284°
2026-05-05 13:33 29.73005 32.10704 16483 ft 372 kts 284°
2026-05-05 13:33 29.73644 32.07830 15780 ft 369 kts 284°
2026-05-05 13:33 29.74277 32.04983 15085 ft 367 kts 284°
2026-05-05 13:33 29.74907 32.02142 14392 ft 366 kts 284°
2026-05-05 13:34 29.75533 31.99317 13705 ft 364 kts 284°
2026-05-05 13:34 29.76157 31.96503 12973 ft 362 kts 284°
2026-05-05 13:34 29.76776 31.93702 12249 ft 361 kts 284°
2026-05-05 13:34 29.77394 31.90909 11534 ft 360 kts 285°
2026-05-05 13:35 29.78086 31.88152 10836 ft 358 kts 291°
2026-05-05 13:35 29.79143 31.85564 10176 ft 357 kts 300°
2026-05-05 13:35 29.80519 31.83243 9498 ft 355 kts 307°
2026-05-05 13:35 29.82004 31.80980 8861 ft 352 kts 307°
2026-05-05 13:36 29.83468 31.78746 8263 ft 348 kts 307°
2026-05-05 13:36 29.84911 31.76524 7657 ft 345 kts 306°
2026-05-05 13:36 29.85995 31.74086 7013 ft 344 kts 287°
2026-05-05 13:36 29.86207 31.71361 6498 ft 342 kts 266°
2026-05-05 13:37 29.85833 31.68669 6155 ft 336 kts 261°
2026-05-05 13:37 29.85373 31.66105 6073 ft 318 kts 260°
2026-05-05 13:37 29.84909 31.63693 6059 ft 299 kts 260°
2026-05-05 13:37 29.84465 31.61414 6050 ft 284 kts 260°
2026-05-05 13:38 29.84038 31.59249 6039 ft 271 kts 260°
2026-05-05 13:38 29.83628 31.57167 6046 ft 265 kts 259°
2026-05-05 13:38 29.83221 31.55089 6055 ft 267 kts 259°
2026-05-05 13:38 29.82837 31.53001 6049 ft 265 kts 266°
2026-05-05 13:39 29.83068 31.50935 6060 ft 260 kts 290°
2026-05-05 13:39 29.83712 31.48998 5941 ft 258 kts 294°
2026-05-05 13:39 29.84392 31.47092 5676 ft 257 kts 294°
2026-05-05 13:39 29.85084 31.45193 5313 ft 257 kts 294°
2026-05-05 13:40 29.85776 31.43316 5143 ft 248 kts 294°
2026-05-05 13:40 29.86434 31.41543 4997 ft 234 kts 294°
2026-05-05 13:40 29.87067 31.39844 4566 ft 229 kts 295°
2026-05-05 13:40 29.87700 31.38151 3951 ft 231 kts 295°
2026-05-05 13:41 29.88333 31.36455 3418 ft 229 kts 294°
2026-05-05 13:41 29.88962 31.34777 2905 ft 229 kts 294°
2026-05-05 13:41 29.89591 31.33089 2759 ft 229 kts 296°
2026-05-05 13:41 29.90494 31.31633 2708 ft 219 kts 320°
2026-05-05 13:42 29.91666 31.30625 2716 ft 201 kts 323°
2026-05-05 13:42 29.92864 31.29972 2691 ft 190 kts 349°
2026-05-05 13:42 29.94185 31.30167 2730 ft 192 kts 10°
2026-05-05 13:42 29.95474 31.30532 2709 ft 193 kts 10°
2026-05-05 13:43 29.96779 31.30879 2696 ft 186 kts
2026-05-05 13:43 29.97995 31.31221 2685 ft 179 kts
2026-05-05 13:43 29.99210 31.31566 2691 ft 177 kts 10°
2026-05-05 13:43 30.00383 31.31872 2725 ft 171 kts
2026-05-05 13:44 30.01512 31.32176 2692 ft 164 kts
2026-05-05 13:44 30.02591 31.32579 2525 ft 168 kts 26°
2026-05-05 13:44 30.03414 31.33526 2344 ft 166 kts 45°
2026-05-05 13:44 30.04150 31.34496 2119 ft 156 kts 42°
2026-05-05 13:45 30.04879 31.35406 1917 ft 152 kts 37°
2026-05-05 13:45 30.05602 31.36310 1681 ft 157 kts 49°
2026-05-05 13:45 30.06288 31.37324 1567 ft 163 kts 46°
2026-05-05 13:45 30.07000 31.38349 1353 ft 164 kts 43°
2026-05-05 13:46 30.07757 31.39311 1075 ft 158 kts 40°
2026-05-05 13:46 30.08466 31.40232 900 ft 152 kts 46°
2026-05-05 13:46 30.09158 31.41168 646 ft 156 kts 43°
2026-05-05 13:46 30.09885 31.42127 467 ft 158 kts 43°
2026-05-05 13:47 30.10518 31.42972 459 ft 112 kts 50°
2026-05-05 13:47 30.10866 31.43424 463 ft 46 kts 37°
2026-05-05 13:47 30.11073 31.43561 457 ft 16 kts 23°
2026-05-05 13:47 30.11128 31.43588 455 ft 9 kts 23°
2026-05-05 13:48 30.11194 31.43594 451 ft 11 kts 344°
2026-05-05 13:48 30.11254 31.43529 447 ft 13 kts 278°
2026-05-05 13:48 30.11243 31.43438 439 ft 12 kts 284°
2026-05-05 13:48 30.11306 31.43366 437 ft 6 kts 316°
2026-05-05 13:49 30.11306 31.43365 437 ft 0 kts 316°
2026-05-05 13:49 30.11318 31.43352 438 ft 6 kts 316°
2026-05-05 13:50 30.11370 31.43299 423 ft 14 kts 320°
2026-05-05 13:50 30.11466 31.43206 426 ft 22 kts 319°
2026-05-05 13:50 30.11580 31.43092 417 ft 19 kts 319°
2026-05-05 13:50 30.11697 31.42974 407 ft 25 kts 320°
2026-05-05 13:51 30.11834 31.42842 396 ft 27 kts 319°
2026-05-05 13:51 30.11958 31.42714 385 ft 19 kts 320°
2026-05-05 13:51 30.12059 31.42615 381 ft 17 kts 319°
2026-05-05 13:51 30.12142 31.42531 376 ft 16 kts 319°
2026-05-05 13:52 30.12203 31.42447 368 ft 12 kts 283°
2026-05-05 13:52 30.12167 31.42370 367 ft 11 kts 220°
2026-05-05 13:52 30.12118 31.42301 371 ft 11 kts 231°
2026-05-05 13:52 30.12072 31.42232 367 ft 11 kts 233°
2026-05-05 13:53 30.12026 31.42167 367 ft 10 kts 226°
2026-05-05 13:53 30.11976 31.42102 371 ft 12 kts 229°
2026-05-05 13:53 30.11912 31.42014 367 ft 17 kts 230°
2026-05-05 13:53 30.11825 31.41900 368 ft 21 kts 231°
2026-05-05 13:54 30.11728 31.41768 368 ft 20 kts 230°
2026-05-05 13:54 30.11630 31.41641 370 ft 23 kts 228°
2026-05-05 13:54 30.11528 31.41500 368 ft 21 kts 232°
2026-05-05 13:54 30.11473 31.41418 372 ft 10 kts 231°
2026-05-05 13:55 30.11418 31.41347 370 ft 8 kts 218°
2026-05-05 13:55 30.11375 31.41298 369 ft 13 kts 226°
2026-05-05 13:55 30.11287 31.41192 370 ft 23 kts 227°
2026-05-05 13:55 30.11174 31.41031 369 ft 27 kts 231°
2026-05-05 13:56 30.11068 31.40886 369 ft 17 kts 236°
2026-05-05 13:56 30.11093 31.40772 364 ft 15 kts 263°
2026-05-05 13:56 30.11035 31.40685 363 ft 13 kts 230°
2026-05-05 13:56 30.10977 31.40611 364 ft 12 kts 229°
2026-05-05 13:57 30.10927 31.40539 367 ft 11 kts 235°
2026-05-05 13:57 30.10922 31.40454 362 ft 12 kts 296°
2026-05-05 13:57 30.10952 31.40354 356 ft 15 kts 285°
2026-05-05 13:57 30.10977 31.40249 351 ft 12 kts 286°
2026-05-05 13:58 30.11041 31.40223 352 ft 8 kts 15°
2026-05-05 13:58 30.11076 31.40235 350 ft 3 kts 18°
2026-05-05 13:58 30.11080 31.40237 351 ft 0 kts 18°